Port Lavaca, TX

4:43 PM CDT on August 20, 2017 (GMT -0500)
Port Lavaca

Weather History for KPKV - May, 2014

Change the Weather History Date:

Tuesday, May 6, 2014

  Actual Average (KVCT) Record (KVCT)
Temperature  
Mean Temperature 72 °F -  
Max Temperature 81 °F 82 °F 98 °F (1934)
Min Temperature 65 °F 65 °F 50 °F (2013)
Cooling Degree Days 8    
Growing Degree Days 22 (Base 50)    
Moisture  
Dew Point 65 °F    
Average Humidity 72    
Maximum Humidity 94    
Minimum Humidity 58    
Precipitation  
Precipitation 0.00 in - - ()
Sea Level Pressure  
Sea Level Pressure 29.86 in    
Wind  
Wind Speed 12 mph (SSE)    
Max Wind Speed 23 mph    
Max Gust Speed 29 mph    
Visibility 10 miles    
Events      
Averages and records for this station are not official NWS values.
T = Trace of Precipitation, MM = Missing Value Source: NWS Daily Summary

Daily Weather History Graph

Daily Weather History Graph

Search for Another Location

Airport or City:

Trip Planner

Search our weather history database for the weather conditions in past years. The results will help you decide how hot, cold, wet, or windy it might be!

Date:

Astronomy

May. 06, 2014 Rise Set
Actual Time 6:41 AM CDT 8:05 PM CDT
Civil Twilight 6:16 AM CDT 8:30 PM CDT
Nautical Twilight 5:46 AM CDT 9:00 PM CDT
Astronomical Twilight 5:15 AM CDT 9:31 PM CDT
Moon 12:53 PM CDT (5/6) 1:29 AM CDT (5/6)
Length of Visible Light 14h 13m
Length of Day
13h 23m
Waxing Crescent, 46% of the Moon is Illuminated
May 6
Waxing Crescent
May 6
First Quarter
May 14
Full
May 21
Last Quarter
May 28
New

Hourly Weather History & Observations

Time (CDT) Temp. Heat Index Dew Point Humidity Pressure Visibility Wind Dir Wind Speed Gust Speed Precip Events Conditions
12:15 AM 66.4 °F - 63.9 °F 92% 29.92 in 10.0 mi SSE 6.9 mph - N/A   Clear
12:35 AM 66.2 °F - 63.9 °F 92% 29.92 in 10.0 mi SSE 5.8 mph - N/A   Clear
12:55 AM 66.0 °F - 63.7 °F 92% 29.91 in 10.0 mi SSE 6.9 mph - N/A   Clear
2:15 AM 66.0 °F - 64.2 °F 94% 29.88 in 10.0 mi SSE 6.9 mph - N/A   Clear
6:55 AM 65.3 °F - 61.9 °F 89% 29.86 in 10.0 mi SSE 6.9 mph - N/A   Clear
7:15 AM 66.4 °F - 62.8 °F 88% 29.86 in 10.0 mi SSE 5.8 mph - N/A   Clear
7:35 AM 68.0 °F - 63.9 °F 87% 29.87 in 10.0 mi SSE 6.9 mph - N/A   Clear
7:55 AM 70.0 °F - 64.6 °F 83% 29.88 in 10.0 mi SSE 9.2 mph - N/A   Clear
8:15 AM 71.6 °F - 65.5 °F 81% 29.88 in 10.0 mi SSE 11.5 mph - N/A   Scattered Clouds
8:55 AM 73.2 °F - 64.6 °F 74% 29.89 in 10.0 mi SSE 17.3 mph 24.2 mph N/A   Mostly Cloudy
9:15 AM 73.8 °F - 64.4 °F 72% 29.89 in 10.0 mi SSE 12.7 mph 20.7 mph N/A   Overcast
9:35 AM 74.8 °F - 64.6 °F 70% 29.90 in 10.0 mi South 17.3 mph 21.9 mph N/A   Overcast
9:55 AM 75.0 °F - 64.4 °F 69% 29.90 in 10.0 mi South 17.3 mph 23.0 mph N/A   Overcast
10:20 AM 75.9 °F - 64.9 °F 69% 29.90 in 10.0 mi SSE 11.5 mph 18.4 mph N/A   Overcast
10:35 AM 76.5 °F - 64.8 °F 67% 29.90 in 10.0 mi South 16.1 mph 23.0 mph N/A   Overcast
10:55 AM 76.1 °F - 64.6 °F 67% 29.90 in 10.0 mi SSE 20.7 mph 25.3 mph N/A   Overcast
11:15 AM 76.3 °F - 64.8 °F 67% 29.90 in 10.0 mi SSE 15.0 mph 24.2 mph N/A   Overcast
11:35 AM 77.9 °F - 64.8 °F 64% 29.90 in 10.0 mi SSE 16.1 mph 25.3 mph N/A   Overcast
11:55 AM 77.2 °F - 64.6 °F 65% 29.90 in 10.0 mi South 16.1 mph 23.0 mph N/A   Overcast
12:15 PM 77.4 °F - 64.6 °F 65% 29.89 in 10.0 mi South 17.3 mph 24.2 mph N/A   Overcast
12:35 PM 79.3 °F - 64.9 °F 61% 29.88 in 10.0 mi South 17.3 mph 23.0 mph N/A   Overcast
12:55 PM 78.8 °F - 64.6 °F 62% 29.88 in 10.0 mi South 18.4 mph 25.3 mph N/A   Overcast
1:15 PM 79.0 °F - 64.4 °F 61% 29.88 in 10.0 mi SSE 15.0 mph 20.7 mph N/A   Overcast
1:35 PM 79.7 °F - 64.2 °F 59% 29.87 in 10.0 mi SSE 19.6 mph 24.2 mph N/A   Overcast
1:55 PM 79.3 °F - 63.9 °F 59% 29.87 in 10.0 mi SSE 17.3 mph 25.3 mph N/A   Overcast
2:15 PM 79.9 °F - 64.4 °F 59% 29.86 in 10.0 mi SSE 16.1 mph 26.5 mph N/A   Overcast
2:35 PM 80.4 °F 82.2 °F 64.8 °F 59% 29.86 in 10.0 mi SSE 18.4 mph 24.2 mph N/A   Overcast
3:15 PM 80.8 °F 82.5 °F 64.9 °F 58% 29.85 in 10.0 mi SSE 19.6 mph 26.5 mph N/A   Overcast
3:35 PM 80.8 °F 82.5 °F 64.8 °F 58% 29.84 in 10.0 mi SSE 20.7 mph 26.5 mph N/A   Overcast
3:55 PM 79.9 °F - 64.6 °F 59% 29.83 in 10.0 mi SSE 18.4 mph 24.2 mph N/A   Overcast
4:15 PM 79.9 °F - 64.9 °F 60% 29.82 in 10.0 mi SSE 18.4 mph 28.8 mph N/A   Overcast
4:35 PM 80.1 °F 81.9 °F 65.1 °F 60% 29.82 in 10.0 mi SSE 17.3 mph 24.2 mph N/A   Overcast
4:55 PM 79.2 °F - 64.9 °F 62% 29.81 in 10.0 mi SE 19.6 mph 24.2 mph N/A   Overcast
5:15 PM 79.2 °F - 64.8 °F 61% 29.81 in 10.0 mi SSE 19.6 mph - N/A   Mostly Cloudy
5:35 PM 79.3 °F - 64.6 °F 60% 29.80 in 10.0 mi SSE 18.4 mph 25.3 mph N/A   Overcast
5:55 PM 77.9 °F - 64.2 °F 63% 29.80 in 10.0 mi SSE 20.7 mph 25.3 mph N/A   Mostly Cloudy
6:15 PM 77.5 °F - 64.4 °F 64% 29.80 in 10.0 mi SSE 18.4 mph 24.2 mph N/A   Mostly Cloudy
6:35 PM 77.2 °F - 64.4 °F 65% 29.80 in 10.0 mi SE 19.6 mph 23.0 mph N/A   Overcast
6:55 PM 76.1 °F - 64.4 °F 67% 29.80 in 10.0 mi SSE 23.0 mph 26.5 mph N/A   Mostly Cloudy
7:15 PM 75.2 °F - 64.4 °F 69% 29.80 in 10.0 mi SE 16.1 mph - N/A   Overcast
7:35 PM 74.5 °F - 64.4 °F 71% 29.81 in 10.0 mi SSE 13.8 mph 23.0 mph N/A   Overcast
7:55 PM 74.3 °F - 64.4 °F 71% 29.82 in 10.0 mi SSE 10.4 mph 18.4 mph N/A   Overcast
8:15 PM 74.1 °F - 64.6 °F 72% 29.83 in 10.0 mi SSE 15.0 mph - N/A   Overcast
8:35 PM 73.6 °F - 64.8 °F 74% 29.82 in 10.0 mi SE 12.7 mph 18.4 mph N/A   Overcast
8:55 PM 73.4 °F - 65.3 °F 76% 29.83 in 10.0 mi SE 15.0 mph - N/A   Overcast
9:15 PM 72.1 °F - 64.8 °F 78% 29.83 in 10.0 mi SE 9.2 mph - N/A   Mostly Cloudy
9:35 PM 71.1 °F - 64.9 °F 81% 29.84 in 10.0 mi SSE 10.4 mph - N/A   Scattered Clouds
9:55 PM 70.5 °F - 65.3 °F 83% 29.85 in 10.0 mi SE 10.4 mph - N/A   Clear
10:15 PM 69.8 °F - 65.3 °F 86% 29.86 in 10.0 mi SSE 9.2 mph - N/A   Clear
10:55 PM 69.8 °F - 66.6 °F 89% 29.86 in 10.0 mi SE 10.4 mph - N/A   Clear
11:15 PM 69.8 °F - 67.1 °F 91% 29.86 in 10.0 mi SE 11.5 mph - N/A   Clear
11:35 PM 69.8 °F - 66.9 °F 91% 29.86 in 10.0 mi SE 10.4 mph - N/A   Clear
11:55 PM 69.4 °F - 66.6 °F 91% 29.87 in 10.0 mi SE 9.2 mph - N/A   Clear